EW2235 Weather Reports


Display with metric or nautical units.
time (UTC)temp
F
wind
direction
speed
MPH
gust
MPH
rain 1hr
in
rain 24hr
in
rain mn
in
humidity
%
barometer
mb
20260506221815 67 230 0.0 3.0 0.00 0.00 0.00 71 1020.6
20260506221315 67 135 0.0 0.0 0.00 0.00 0.00 70 1020.7
20260506220824 66 6 0.0 3.0 0.00 0.00 0.00 71 1020.8
20260506220330 66 356 0.0 3.0 0.00 0.00 0.00 68 1020.8
20260506215813 67 248 0.0 3.0 0.00 0.00 0.00 68 1020.7
20260506215321 67 318 0.0 3.0 0.00 0.00 0.00 69 1020.7
20260506214823 67 179 0.0 4.0 0.00 0.00 0.00 68 1020.6
20260506214322 66 269 0.0 5.0 0.00 0.00 0.00 69 1020.6
20260506213831 67 316 0.0 4.0 0.00 0.00 0.00 68 1020.6
20260506213331 67 148 0.0 4.0 0.00 0.00 0.00 69 1020.6
20260506212813 67 213 0.0 0.0 0.00 0.00 0.00 70 1020.8
20260506212319 66 210 0.0 4.0 0.00 0.00 0.00 71 1020.8
20260506211822 66 243 0.0 5.0 0.00 0.00 0.00 72 1020.9
20260506211321 66 129 1.0 5.0 0.00 0.00 0.00 71 1020.9
20260506210831 66 181 0.0 0.0 0.00 0.00 0.00 72 1021.0
20260506210328 65 131 0.0 3.0 0.00 0.00 0.00 75 1021.0
20260506205837 64 101 1.0 3.0 0.00 0.00 0.00 74 1021.1
20260506205317 64 60 0.0 0.0 0.00 0.00 0.00 76 1021.0
20260506204819 63 109 0.0 4.0 0.00 0.00 0.00 76 1021.0
20260506204325 64 240 1.0 5.0 0.00 0.00 0.00 76 1021.1
20260506203828 63 209 1.0 5.0 0.00 0.00 0.00 76 1021.0
20260506203327 64 156 1.0 5.0 0.00 0.00 0.00 77 1021.0
20260506202817 63 136 0.0 0.0 0.00 0.00 0.00 79 1021.0
20260506202316 63 145 0.0 5.0 0.00 0.00 0.00 78 1020.9
20260506201818 63 205 1.0 5.0 0.00 0.00 0.00 77 1020.9
20260506201325 62 206 0.0 3.0 0.00 0.00 0.00 78 1021.0
20260506200827 62 138 0.0 3.0 0.00 0.00 0.00 79 1021.0
20260506200334 62 46 0.0 2.0 0.00 0.00 0.00 79 1021.0
20260506195816 62 8 0.0 0.0 0.00 0.00 0.00 79 1021.1
20260506195315 62 105 0.0 2.0 0.00 0.00 0.00 80 1021.3
20260506194825 61 77 0.0 2.0 0.00 0.00 0.00 80 1021.3
20260506194324 61 180 0.0 0.0 0.00 0.00 0.00 80 1021.4
20260506193854 62 352 0.0 0.0 0.00 0.00 0.00 79 1021.4
20260506193334 61 113 0.0 0.0 0.00 0.00 0.00 81 1021.3
20260506192842 61 166 0.0 3.0 0.00 0.00 0.00 81 1021.4
20260506192348 61 152 1.0 3.0 0.00 0.00 0.00 79 1021.4
20260506191849 62 358 0.0 5.0 0.00 0.00 0.00 78 1021.3
20260506191335 61 116 1.0 5.0 0.00 0.00 0.00 79 1021.2
20260506190843 61 4 0.0 2.0 0.00 0.00 0.00 79 1021.2
20260506190341 60 344 0.0 1.0 0.00 0.00 0.00 81 1021.2
20260506185830 60 132 0.0 1.0 0.00 0.00 0.00 81 1021.3
20260506185329 61 308 0.0 3.0 0.00 0.00 0.00 80 1021.3
20260506184839 61 293 0.0 3.0 0.00 0.00 0.00 81 1021.2
20260506184318 60 302 0.0 3.0 0.00 0.00 0.00 81 1021.1
20260506183820 60 156 0.0 3.0 0.00 0.00 0.00 81 1021.2
20260506183326 60 332 0.0 3.0 0.00 0.00 0.00 81 1021.1
20260506182829 60 319 0.0 0.0 0.00 0.00 0.00 82 1021.1
20260506182328 60 314 0.0 0.0 0.00 0.00 0.00 83 1021.2
20260506181838 59 354 0.0 1.0 0.00 0.00 0.00 83 1021.2
20260506181318 59 44 0.0 2.0 0.00 0.00 0.00 84 1021.2
20260506180820 58 255 0.0 3.0 0.00 0.00 0.00 84 1021.2
20260506180326 58 289 0.0 3.0 0.00 0.00 0.00 86 1021.2
20260506175828 58 301 0.0 0.0 0.00 0.00 0.00 86 1021.2
20260506175335 58 297 0.0 2.0 0.00 0.00 0.00 86 1021.2
20260506174818 58 209 0.0 2.0 0.00 0.00 0.00 87 1021.3
20260506174316 57 176 0.0 0.0 0.00 0.00 0.00 88 1021.2
20260506173818 57 194 0.0 0.0 0.00 0.00 0.00 89 1021.2
20260506173325 57 207 0.0 3.0 0.00 0.00 0.00 90 1021.1
20260506172833 56 113 0.0 3.0 0.00 0.00 0.00 89 1021.0
20260506172312 56 143 1.0 3.0 0.00 0.00 0.00 89 1020.9
20260506171820 56 115 0.0 0.0 0.00 0.00 0.00 90 1020.9
20260506171325 56 253 0.0 1.0 0.00 0.00 0.00 90 1021.0
20260506170827 56 186 0.0 1.0 0.00 0.00 0.00 90 1020.9
20260506170312 56 306 0.0 0.0 0.00 0.00 0.00 90 1021.0
20260506165821 56 306 0.0 0.0 0.00 0.00 0.00 91 1021.0
20260506165322 56 306 0.0 0.0 0.00 0.00 0.00 90 1021.2
20260506164832 56 97 0.0 0.0 0.00 0.00 0.00 91 1021.1
20260506164315 55 97 0.0 0.0 0.00 0.00 0.00 91 1021.0
20260506163818 55 131 0.0 0.0 0.00 0.00 0.00 91 1021.0
20260506163324 55 144 0.0 0.0 0.00 0.00 0.00 91 1020.9
20260506162814 55 34 0.0 0.0 0.00 0.00 0.00 91 1021.0
20260506161838 55 96 0.0 2.0 0.00 0.00 0.00 91 1020.8
20260506161318 55 144 0.0 3.0 0.00 0.00 0.00 91 1020.8
20260506160821 55 99 0.0 2.0 0.00 0.00 0.00 91 1020.8
20260506160320 55 236 0.0 1.0 0.00 0.00 0.00 91 1020.8
20260506155828 55 123 0.0 2.0 0.00 0.00 0.00 91 1020.5
20260506155327 55 100 0.0 2.0 0.00 0.00 0.00 91 1020.5
20260506154836 55 343 0.0 1.0 0.00 0.00 0.00 91 1020.6
20260506154316 55 139 0.0 5.0 0.00 0.00 0.00 91 1020.1
20260506153819 54 100 2.0 5.0 0.00 0.00 0.00 91 1020.0
20260506153324 55 143 0.0 2.0 0.00 0.00 0.00 91 1020.3
20260506152827 54 128 0.0 2.0 0.00 0.00 0.00 91 1020.6
20260506152326 55 79 0.0 0.0 0.00 0.00 0.00 91 1020.9
20260506151816 55 79 0.0 0.0 0.00 0.00 0.00 91 1020.9
20260506151315 55 79 0.0 0.0 0.00 0.00 0.00 91 1021.0
20260506150817 55 123 0.0 0.0 0.00 0.00 0.00 91 1021.0
20260506150321 55 123 0.0 0.0 0.00 0.00 0.00 91 1021.0
20260506145823 55 153 0.0 0.0 0.00 0.00 0.00 91 1020.9
20260506145330 55 2 0.0 0.0 0.00 0.00 0.00 91 1021.0
20260506144832 55 131 0.0 0.0 0.00 0.00 0.00 91 1020.8
20260506144332 55 112 0.0 0.0 0.00 0.00 0.00 92 1020.6
20260506143821 55 334 0.0 0.0 0.00 0.00 0.00 91 1020.8
20260506143327 55 329 0.0 0.0 0.00 0.00 0.00 91 1020.7
20260506142829 55 35 0.0 0.0 0.00 0.00 0.00 91 1020.5
20260506142337 55 61 0.0 0.0 0.00 0.00 0.00 91 1020.3
20260506141819 54 107 0.0 5.0 0.00 0.00 0.00 92 1020.2
20260506141318 54 90 1.0 5.0 0.00 0.00 0.00 91 1019.9
20260506140828 54 86 0.0 4.0 0.00 0.00 0.00 92 1019.9
20260506140327 54 154 0.0 4.0 0.00 0.00 0.00 92 1020.0
20260506135830 54 136 0.0 0.0 0.00 0.00 0.00 92 1019.9
20260506135316 54 131 0.0 0.0 0.00 0.00 0.00 92 1020.0
20260506134819 54 129 0.0 0.0 0.00 0.00 0.00 92 1019.9
20260506134318 54 129 0.0 0.0 0.00 0.00 0.00 92 1019.8
20260506133828 54 129 0.0 0.0 0.00 0.00 0.00 92 1019.8
20260506133326 54 129 0.0 0.0 0.00 0.00 0.00 92 1019.8
20260506132836 54 136 0.0 1.0 0.00 0.00 0.00 92 1019.8
20260506132315 54 120 0.0 1.0 0.00 0.00 0.00 92 1019.8
20260506131817 54 115 0.0 0.0 0.00 0.00 0.00 92 1019.7
20260506131324 54 139 0.0 1.0 0.00 0.00 0.00 92 1019.6
20260506130824 54 93 0.0 1.0 0.00 0.00 0.00 91 1019.5
20260506130324 54 142 0.0 0.0 0.00 0.00 0.00 91 1019.4
20260506125833 54 126 0.0 0.0 0.00 0.00 0.00 91 1019.6
20260506125313 54 125 0.0 0.0 0.00 0.00 0.00 91 1019.5
20260506124815 54 153 0.0 1.0 0.00 0.00 0.00 91 1019.5
20260506124322 54 102 0.0 1.0 0.00 0.00 0.00 91 1019.4
20260506123825 55 94 0.0 0.0 0.00 0.00 0.00 91 1019.3
20260506123333 55 127 0.0 0.0 0.00 0.00 0.00 91 1019.3
20260506122813 55 139 0.0 0.0 0.00 0.00 0.00 91 1019.4
20260506122319 55 131 0.0 1.0 0.00 0.00 0.00 91 1019.4
20260506121822 55 120 0.0 1.0 0.00 0.00 0.00 91 1019.5
20260506120818 55 110 0.0 0.0 0.00 0.00 0.00 91 1019.4
20260506120318 55 134 0.0 0.0 0.00 0.00 0.00 90 1019.3
20260506115828 55 138 0.0 0.0 0.00 0.00 0.00 90 1019.4
20260506115327 55 138 0.0 0.0 0.00 0.00 0.00 90 1019.3
20260506114837 55 136 0.0 0.0 0.00 0.00 0.00 90 1019.3
20260506114314 55 136 0.0 0.0 0.00 0.00 0.00 90 1019.1
20260506113817 55 136 0.0 0.0 0.00 0.00 0.00 90 1019.1
20260506113316 55 136 0.0 0.0 0.00 0.00 0.00 90 1019.0
20260506112826 55 136 0.0 0.0 0.00 0.00 0.00 90 1019.0
20260506112325 55 115 0.0 0.0 0.00 0.00 0.00 90 1019.0
20260506111835 55 113 0.0 0.0 0.00 0.00 0.00 90 1019.1
20260506111318 55 113 0.0 0.0 0.00 0.00 0.00 90 1019.0
20260506110819 55 113 0.0 0.0 0.00 0.00 0.00 90 1018.9
20260506110334 55 142 0.0 0.0 0.00 0.00 0.00 90 1018.8
20260506105859 55 111 0.0 0.0 0.00 0.00 0.00 90 1018.7
20260506105338 55 127 0.0 0.0 0.00 0.00 0.00 90 1018.7
20260506104847 55 127 0.0 0.0 0.00 0.00 0.00 90 1018.6
20260506104353 55 134 0.0 0.0 0.00 0.00 0.00 90 1018.5
20260506103835 55 134 0.0 0.0 0.00 0.00 0.00 90 1018.4
20260506103342 55 139 0.0 0.0 0.00 0.00 0.00 90 1018.4
20260506102850 55 139 0.0 0.0 0.00 0.00 0.00 90 1018.4
20260506102350 55 127 0.0 0.0 0.00 0.00 0.00 90 1018.3
20260506101837 55 122 0.0 0.0 0.00 0.00 0.00 90 1018.3
20260506101317 55 115 0.0 0.0 0.00 0.00 0.00 90 1018.2
20260506100819 55 112 0.0 0.0 0.00 0.00 0.00 90 1018.2
20260506100326 55 91 0.0 3.0 0.00 0.00 0.00 90 1018.2
20260506095815 56 149 0.0 3.0 0.00 0.00 0.00 89 1018.2
20260506095314 56 122 0.0 0.0 0.00 0.00 0.00 89 1018.2
20260506094824 56 118 0.0 0.0 0.00 0.00 0.00 89 1018.1
20260506094324 56 115 0.0 0.0 0.00 0.00 0.00 89 1018.0
20260506093826 56 132 0.0 0.0 0.00 0.00 0.00 89 1018.0
20260506093313 56 132 0.0 0.0 0.00 0.00 0.00 89 1018.0
20260506092814 56 119 0.0 1.0 0.00 0.00 0.00 89 1018.0
20260506092320 56 111 0.0 0.0 0.00 0.00 0.00 89 1018.0
20260506091829 56 124 0.0 0.0 0.00 0.00 0.00 89 1018.0
20260506091329 56 113 0.0 0.0 0.00 0.00 0.00 89 1017.9
20260506090838 57 138 0.0 0.0 0.00 0.00 0.00 89 1017.9
20260506090318 57 130 0.0 0.0 0.00 0.00 0.00 89 1017.9
20260506085820 57 87 0.0 0.0 0.00 0.00 0.00 89 1017.8
20260506085319 57 110 0.0 0.0 0.00 0.00 0.00 88 1017.9
20260506084829 57 130 0.0 0.0 0.00 0.00 0.00 88 1017.8
20260506084328 57 135 0.0 1.0 0.00 0.00 0.00 88 1017.9
20260506083837 57 134 0.0 1.0 0.00 0.00 0.00 88 1017.9
20260506083317 58 108 0.0 1.0 0.00 0.00 0.00 88 1017.9
20260506082819 58 91 0.0 1.0 0.00 0.00 0.00 88 1017.9
20260506082325 58 113 0.0 0.0 0.00 0.00 0.00 88 1017.9
20260506081828 58 123 0.0 0.0 0.00 0.00 0.00 87 1017.9
20260506081327 58 110 0.0 0.0 0.00 0.00 0.00 87 1017.9
20260506080817 58 110 0.0 0.0 0.00 0.00 0.00 87 1017.9
20260506080316 58 129 0.0 0.0 0.00 0.00 0.00 87 1017.8
20260506073331 59 70 0.0 0.0 0.00 0.00 0.00 85 1017.5
20260506072841 59 71 0.0 0.0 0.00 0.00 0.00 85 1017.4
20260506072422 59 71 0.0 0.0 0.00 0.00 0.00 84 1017.4
20260506071845 59 70 0.0 0.0 0.00 0.00 0.00 84 1017.5
20260506071350 59 70 0.0 0.0 0.00 0.00 0.00 83 1017.4
20260506070834 60 71 0.0 0.0 0.00 0.00 0.00 82 1017.4
20260506070339 60 71 0.0 0.0 0.00 0.00 0.00 82 1017.4
20260506062324 59 345 0.0 0.0 0.00 0.00 0.00 83 1017.2
20260506061813 59 346 0.0 0.0 0.00 0.00 0.00 83 1017.2
20260506061312 59 346 0.0 0.0 0.00 0.00 0.00 83 1017.1
20260506060815 59 346 0.0 0.0 0.00 0.00 0.00 83 1017.1
20260506060322 60 346 0.0 0.0 0.00 0.00 0.00 83 1017.2
20260506051338 60 345 0.0 0.0 0.00 0.00 0.00 82 1016.9
20260506050820 60 345 0.0 0.0 0.00 0.00 0.00 82 1016.9
20260506050320 60 345 0.0 0.0 0.00 0.00 0.00 82 1016.9
20260506044828 60 346 0.0 0.0 0.00 0.00 0.00 82 1016.8
20260506044335 60 346 0.0 0.0 0.00 0.00 0.00 82 1016.7
20260506043818 60 346 0.0 0.0 0.00 0.00 0.00 81 1016.7
20260506043318 60 345 0.0 0.0 0.00 0.00 0.00 82 1016.6
20260506042828 60 346 0.0 0.0 0.00 0.00 0.00 81 1016.5
20260506042328 60 346 0.0 0.0 0.00 0.00 0.00 81 1016.5
20260506041830 60 345 0.0 0.0 0.00 0.00 0.00 81 1016.4
20260506041337 60 345 0.0 0.0 0.00 0.00 0.00 81 1016.4
20260506040820 60 345 0.0 0.0 0.00 0.00 0.00 81 1016.4
20260506040320 60 345 0.0 0.0 0.00 0.00 0.00 80 1016.3
20260506035830 60 345 0.0 0.0 0.00 0.00 0.00 80 1016.3
20260506035350 60 345 0.0 0.0 0.00 0.00 0.00 80 1016.2
20260506034839 60 345 0.0 0.0 0.00 0.00 0.00 80 1016.1
20260506034345 60 345 0.0 0.0 0.00 0.00 0.00 80 1016.0
20260506033846 60 345 0.0 0.0 0.00 0.00 0.00 79 1015.9
20260506033332 61 345 0.0 0.0 0.00 0.00 0.00 79 1015.9
20260506032842 61 345 0.0 0.0 0.00 0.00 0.00 78 1015.9
20260506032340 61 304 0.0 0.0 0.00 0.00 0.00 78 1015.9
20260506031851 61 347 0.0 0.0 0.00 0.00 0.00 78 1015.9
20260506031356 61 347 0.0 0.0 0.00 0.00 0.00 78 1015.9
20260506030819 61 347 0.0 0.0 0.00 0.00 0.00 78 1015.8
20260506030318 61 347 0.0 0.0 0.00 0.00 0.00 78 1015.7
20260506025829 61 347 0.0 0.0 0.00 0.00 0.00 78 1015.6
20260506025328 61 347 0.0 0.0 0.00 0.00 0.00 77 1015.6
20260506024838 62 347 0.0 0.0 0.00 0.00 0.00 78 1015.6
20260506024325 62 347 0.0 0.0 0.00 0.00 0.00 78 1015.6
20260506023828 61 347 0.0 0.0 0.00 0.00 0.00 77 1015.5
20260506023328 61 347 0.0 0.0 0.00 0.00 0.00 77 1015.5
20260506022838 61 347 0.0 0.0 0.00 0.00 0.00 76 1015.5
20260506022319 62 327 0.0 0.0 0.00 0.00 0.00 77 1015.5
20260506021821 62 3 0.0 2.0 0.00 0.00 0.00 76 1015.6
20260506021328 62 3 0.0 2.0 0.00 0.00 0.00 76 1015.6
20260506020831 62 125 0.0 0.0 0.00 0.00 0.00 77 1015.5
20260506020311 62 139 0.0 1.0 0.00 0.00 0.00 76 1015.4
20260506015814 62 348 0.0 1.0 0.00 0.00 0.00 76 1015.5
20260506015321 62 304 0.0 3.0 0.00 0.00 0.00 76 1015.5
20260506014824 62 348 1.0 3.0 0.00 0.00 0.00 75 1015.5
20260506014331 63 340 0.0 1.0 0.00 0.00 0.00 75 1015.5
20260506013814 63 301 0.0 0.0 0.00 0.00 0.00 76 1015.5
20260506013314 62 350 0.0 0.0 0.00 0.00 0.00 76 1015.6
20260506012825 62 338 0.0 0.0 0.00 0.00 0.00 77 1015.6
20260506012324 62 340 0.0 0.0 0.00 0.00 0.00 76 1015.6
20260506011827 62 100 0.0 2.0 0.00 0.00 0.00 77 1015.6
20260506011334 62 100 0.0 4.0 0.00 0.00 0.00 77 1015.6
20260506010817 62 302 0.0 1.0 0.00 0.00 0.00 76 1015.6
20260506010317 63 335 0.0 3.0 0.00 0.00 0.00 75 1015.5
20260506005827 62 200 0.0 5.0 0.00 0.00 0.00 76 1015.5
20260506005326 63 77 0.0 2.0 0.00 0.00 0.00 76 1015.5
20260506004829 62 54 0.0 0.0 0.00 0.00 0.00 78 1015.6
20260506004336 62 130 0.0 0.0 0.00 0.00 0.00 77 1015.7
20260506003819 62 100 0.0 0.0 0.00 0.00 0.00 77 1015.7
20260506003319 62 354 0.0 0.0 0.00 0.00 0.00 78 1015.6
20260506002829 61 354 0.0 0.0 0.00 0.00 0.00 79 1015.6
20260506002329 61 355 0.0 0.0 0.00 0.00 0.00 78 1015.7
20260506001812 61 349 0.0 0.0 0.00 0.00 0.00 79 1015.8
20260506001312 61 340 0.0 0.0 0.00 0.00 0.00 79 1015.8
20260506000822 61 359 0.0 1.0 0.00 0.00 0.00 80 1015.8
20260506000323 61 332 0.0 1.0 0.00 0.00 0.00 79 1015.8
20260505235831 61 287 0.0 0.0 0.00 0.00 0.00 79 1015.8
20260505235315 61 342 0.0 1.0 0.00 0.00 0.00 80 1015.9
20260505234818 60 342 0.0 1.0 0.00 0.00 0.00 80 1016.0
20260505234325 60 55 0.0 0.0 0.00 0.00 0.00 80 1016.1
20260505233912 60 327 0.0 0.0 0.00 0.00 0.00 81 1016.1
20260505233326 60 340 0.0 1.0 0.00 0.00 0.00 80 1016.2
20260505232829 60 335 0.0 1.0 0.00 0.00 0.00 80 1016.0
20260505232336 60 326 0.0 3.0 0.00 0.00 0.00 81 1016.1
20260505231907 60 15 0.0 4.0 0.00 0.00 0.00 81 1016.1
20260505231321 60 341 2.0 4.0 0.00 0.00 0.00 80 1016.1
20260505230825 60 326 1.0 4.0 0.00 0.00 0.00 81 1016.2
20260505230312 60 339 0.0 1.0 0.00 0.00 0.00 79 1016.1
20260505225822 61 333 0.0 1.0 0.00 0.00 0.00 79 1016.1
20260505225321 61 342 0.0 0.0 0.00 0.00 0.00 79 1016.2
20260505224832 61 307 0.0 0.0 0.00 0.00 0.00 78 1016.2
20260505224312 60 307 0.0 0.0 0.00 0.00 0.00 78 1016.3
20260505223814 61 333 0.0 0.0 0.00 0.00 0.00 78 1016.3
20260505223315 61 296 0.0 0.0 0.00 0.00 0.00 77 1016.4
20260505222824 61 334 0.0 0.0 0.00 0.00 0.00 77 1016.3
20260505222324 61 318 0.0 0.0 0.00 0.00 0.00 77 1016.3